User: anonymous   Login
Location: Unspecified
(0.0000°N, 0.0000°E)
Time: 12:50:10
(UTC+00:00)
Language:

Injun 5 (Explorer 40) - Orbit

View from above orbital plane
View from above orbital plane
View from above satellite
View from above satellite

Ground track
Ground track

The orbit data is extracted from the following two-line orbital elements,

1  3338U 68066B   17229.95387613 +.00000040 +00000-0 +26567-4 0  9990
2  3338 080.6625 031.2129 1132591 060.6028 310.3304 12.22825149184067
Epoch (UTC): 17 August 2017 22:53:34
Eccentricity: 0.1132591
inclination: 80.6625°
perigee height: 679 km
apogee height: 2481 km
right ascension of ascending node: 31.2129°
argument of perigee: 60.6028°
revolutions per day: 12.22825149
mean anomaly at epoch: 310.3304°
orbit number at epoch: 18406

The dashed part of the orbit path shows where the satellite is in the earth's shadow,  

DLR